Change the Weather History Date:

Sunday, July 21, 2013

  Actual Average Record
Temperature  
Mean Temperature 76 °F -  
Max Temperature 82 °F 85 °F 86 °F (2014)
Min Temperature 69 °F 65 °F 62 °F (2014)
Cooling Degree Days 10    
Growing Degree Days 26 (Base 50)    
Moisture  
Dew Point 70 °F    
Average Humidity 84    
Maximum Humidity 100    
Minimum Humidity 62    
Precipitation  
Precipitation 0.24 in - - ()
Sea Level Pressure  
Sea Level Pressure 29.97 in    
Wind  
Wind Speed 4 mph (WSW)    
Max Wind Speed 9 mph    
Max Gust Speed -    
Visibility 10 miles    
Events Rain    
Averages and records for this station are not official NWS values.
T = Trace of Precipitation, MM = Missing Value Source: NWS Daily Summary

Daily Weather History Graph

Daily Weather History Graph

Search for Another Location

Airport or City:

Trip Planner

Search our weather history database for the weather conditions in past years. The results will help you decide how hot, cold, wet, or windy it might be!

Date:

Astronomy

Jul. 21, 2013 Rise Set
Actual Time 6:29 AM EDT 8:54 PM EDT
Civil Twilight 5:59 AM EDT 9:24 PM EDT
Nautical Twilight 5:22 AM EDT 10:01 PM EDT
Astronomical Twilight 4:41 AM EDT 10:42 PM EDT
Moon 7:52 PM EDT (7/21) 5:14 AM EDT (7/21)
Length of Visible Light 15h 24m
Length of Day
14h 24m
Waxing Gibbous, 98% of the Moon is Illuminated
Jul 21
Waxing Gibbous
Jul 22
Full
Jul 29
Last Quarter
Aug 6
New
Aug 14
First Quarter

Hourly Weather History & Observations

Time (EDT) Temp. Heat Index Dew Point Humidity Pressure Visibility Wind Dir Wind Speed Gust Speed Precip Events Conditions
12:15 AM 77.0 °F - 68.0 °F 74% 29.97 in 10.0 mi South 6.9 mph - N/A   Clear
12:35 AM 75.2 °F - 69.8 °F 83% 29.96 in 10.0 mi South 6.9 mph - N/A   Clear
12:55 AM 71.6 °F - 69.8 °F 94% 29.96 in 10.0 mi SSW 3.5 mph - N/A   Clear
1:15 AM 71.6 °F - 69.8 °F 94% 29.96 in 10.0 mi Calm Calm - N/A   Clear
1:35 AM 71.6 °F - 69.8 °F 94% 29.97 in 10.0 mi SW 3.5 mph - N/A   Clear
1:55 AM 73.4 °F - 69.8 °F 88% 29.97 in 10.0 mi Calm Calm - N/A   Clear
2:15 AM 71.6 °F - 69.8 °F 94% 29.96 in 10.0 mi Calm Calm - N/A   Scattered Clouds
2:35 AM 71.6 °F - 69.8 °F 94% 29.96 in 10.0 mi Calm Calm - N/A   Overcast
2:55 AM 73.4 °F - 69.8 °F 88% 29.95 in 10.0 mi Calm Calm - N/A   Mostly Cloudy
3:15 AM 71.6 °F - 69.8 °F 94% 29.95 in 10.0 mi SSW 3.5 mph - N/A   Mostly Cloudy
3:35 AM 71.6 °F - 69.8 °F 94% 29.96 in 10.0 mi Calm Calm - N/A   Mostly Cloudy
3:55 AM 73.4 °F - 71.6 °F 94% 29.95 in 10.0 mi Calm Calm - N/A   Overcast
4:15 AM 71.6 °F - 71.6 °F 100% 29.95 in 10.0 mi WSW 3.5 mph - N/A   Scattered Clouds
4:35 AM 71.6 °F - 71.6 °F 100% 29.95 in 10.0 mi Calm Calm - N/A   Clear
4:55 AM 71.6 °F - 69.8 °F 94% 29.95 in 10.0 mi WSW 3.5 mph - N/A   Clear
5:15 AM 71.6 °F - 69.8 °F 94% 29.96 in 10.0 mi SW 4.6 mph - N/A   Clear
5:35 AM 71.6 °F - 69.8 °F 94% 29.96 in 10.0 mi WSW 3.5 mph - N/A   Clear
5:55 AM 71.6 °F - 69.8 °F 94% 29.97 in 10.0 mi SW 4.6 mph - N/A   Scattered Clouds
6:15 AM 71.6 °F - 69.8 °F 94% 29.97 in 10.0 mi SW 4.6 mph - N/A   Mostly Cloudy
6:35 AM 71.6 °F - 69.8 °F 94% 29.97 in 10.0 mi WSW 3.5 mph - N/A   Overcast
6:55 AM 71.6 °F - 69.8 °F 94% 29.98 in 10.0 mi West 4.6 mph - N/A   Overcast
7:15 AM 71.6 °F - 69.8 °F 94% 29.99 in 10.0 mi WSW 3.5 mph - N/A   Overcast
7:35 AM 71.6 °F - 69.8 °F 94% 30.00 in 4.0 mi West 4.6 mph - 0.03 in Rain Rain
7:55 AM 69.8 °F - 69.8 °F 100% 30.01 in 3.0 mi NW 3.5 mph - 0.19 in Rain Heavy Rain
8:15 AM 69.8 °F - 69.8 °F 100% 30.01 in 3.0 mi Calm Calm - 0.04 in Rain Light Rain
8:35 AM 69.8 °F - 69.8 °F 100% 30.02 in 10.0 mi Calm Calm - 0.04 in   Overcast
8:55 AM 71.6 °F - 69.8 °F 94% 30.02 in 10.0 mi Calm Calm - 0.04 in   Overcast
9:15 AM 71.6 °F - 69.8 °F 94% 30.01 in 10.0 mi Calm Calm - N/A Rain Light Rain
9:35 AM 71.6 °F - 69.8 °F 94% 30.01 in 10.0 mi WSW 3.5 mph - 0.01 in   Overcast
9:55 AM 73.4 °F - 71.6 °F 94% 30.01 in 10.0 mi WSW 6.9 mph - 0.01 in   Overcast
10:15 AM 73.4 °F - 71.6 °F 94% 30.00 in 10.0 mi SW 6.9 mph - N/A   Overcast
10:35 AM 75.2 °F - 71.6 °F 89% 30.00 in 10.0 mi WSW 6.9 mph - N/A   Overcast
10:55 AM 75.2 °F - 71.6 °F 89% 30.01 in 10.0 mi WSW 5.8 mph - N/A   Mostly Cloudy
11:15 AM 75.2 °F - 71.6 °F 89% 30.01 in 10.0 mi WSW 4.6 mph - N/A   Mostly Cloudy
11:35 AM 77.0 °F - 71.6 °F 83% 30.02 in 10.0 mi WNW 5.8 mph - N/A   Overcast
11:55 AM 77.0 °F - 71.6 °F 83% 30.01 in 10.0 mi WNW 6.9 mph - N/A   Mostly Cloudy
12:15 PM 78.8 °F - 71.6 °F 78% 30.01 in 10.0 mi NNW 4.6 mph - N/A   Mostly Cloudy
12:35 PM 78.8 °F - 71.6 °F 78% 30.02 in 10.0 mi WNW 6.9 mph - N/A   Mostly Cloudy
12:55 PM 80.6 °F 85.4 °F 73.4 °F 79% 30.02 in 10.0 mi West 6.9 mph - N/A   Mostly Cloudy
1:15 PM 80.6 °F 84.6 °F 71.6 °F 74% 30.01 in 10.0 mi West 6.9 mph - N/A   Scattered Clouds
2:15 PM 82.4 °F 87.2 °F 71.6 °F 70% 29.99 in 10.0 mi WSW 4.6 mph - N/A   Scattered Clouds
2:35 PM 80.6 °F 84.6 °F 71.6 °F 74% 29.99 in 10.0 mi WNW 5.8 mph - N/A   Scattered Clouds
2:55 PM 80.6 °F 84.6 °F 71.6 °F 74% 29.99 in 10.0 mi NW 5.8 mph - N/A   Mostly Cloudy
3:15 PM 80.6 °F 84.6 °F 71.6 °F 74% 29.98 in 10.0 mi Calm Calm - N/A   Mostly Cloudy
3:35 PM 82.4 °F 87.2 °F 71.6 °F 70% 29.97 in 10.0 mi West 4.6 mph - N/A   Scattered Clouds
3:55 PM 82.4 °F 87.2 °F 71.6 °F 70% 29.97 in 10.0 mi NW 3.5 mph - N/A   Scattered Clouds
4:15 PM 80.6 °F 85.4 °F 73.4 °F 79% 29.97 in 10.0 mi Calm Calm - N/A   Mostly Cloudy
4:35 PM 82.4 °F 87.2 °F 71.6 °F 70% 29.96 in 10.0 mi NNW 4.6 mph - N/A   Scattered Clouds
4:55 PM 82.4 °F 87.2 °F 71.6 °F 70% 29.95 in 10.0 mi NNE 4.6 mph - N/A   Scattered Clouds
5:15 PM 82.4 °F 87.2 °F 71.6 °F 70% 29.95 in 10.0 mi Calm Calm - N/A   Scattered Clouds
5:35 PM 82.4 °F 87.2 °F 71.6 °F 70% 29.95 in 10.0 mi Calm Calm - N/A   Scattered Clouds
5:55 PM 82.4 °F 86.3 °F 69.8 °F 66% 29.95 in 10.0 mi Calm Calm - N/A   Clear
6:15 PM 82.4 °F 86.3 °F 69.8 °F 66% 29.94 in 10.0 mi NE 3.5 mph - N/A   Clear
6:35 PM 82.4 °F 85.4 °F 68.0 °F 62% 29.93 in 10.0 mi Calm Calm - N/A   Clear
6:55 PM 82.4 °F 86.3 °F 69.8 °F 66% 29.93 in 10.0 mi NNE 3.5 mph - N/A   Clear
7:15 PM 82.4 °F 86.3 °F 69.8 °F 66% 29.93 in 10.0 mi Calm Calm - N/A   Clear
7:35 PM 82.4 °F 85.4 °F 68.0 °F 62% 29.93 in 10.0 mi East 3.5 mph - N/A   Clear
7:55 PM 82.4 °F 86.3 °F 69.8 °F 66% 29.94 in 10.0 mi Calm Calm - N/A   Clear
8:15 PM 80.6 °F 83.9 °F 69.8 °F 70% 29.95 in 10.0 mi ESE 3.5 mph - N/A   Scattered Clouds
8:35 PM 80.6 °F 83.9 °F 69.8 °F 70% 29.95 in 10.0 mi SSE 9.2 mph - N/A   Mostly Cloudy
8:55 PM 78.8 °F - 69.8 °F 74% 29.96 in 10.0 mi South 8.1 mph - N/A   Scattered Clouds
9:15 PM 75.2 °F - 69.8 °F 83% 29.96 in 10.0 mi SW 9.2 mph - N/A   Clear
9:35 PM 73.4 °F - 68.0 °F 83% 29.96 in 10.0 mi SW 3.5 mph - N/A   Clear
9:55 PM 73.4 °F - 69.8 °F 88% 29.97 in 10.0 mi SSW 6.9 mph - N/A   Clear
10:15 PM 73.4 °F - 69.8 °F 88% 29.97 in 10.0 mi SSW 6.9 mph - N/A   Scattered Clouds
10:35 PM 73.4 °F - 69.8 °F 88% 29.97 in 10.0 mi SW 5.8 mph - N/A   Scattered Clouds
10:55 PM 71.6 °F - 69.8 °F 94% 29.98 in 10.0 mi SW 5.8 mph - N/A   Scattered Clouds
11:15 PM 71.6 °F - 69.8 °F 94% 29.98 in 10.0 mi SW 4.6 mph - N/A   Scattered Clouds
11:35 PM 71.6 °F - 69.8 °F 94% 29.99 in 10.0 mi West 4.6 mph - N/A   Mostly Cloudy
11:55 PM 71.6 °F - 69.8 °F 94% 29.99 in 10.0 mi Calm Calm - N/A   Overcast